GPS BIIR-6 (PRN 14)

Last updated on Mon Aug 24 2020 05:36:59 GMT+0000 (Coordinated Universal Time)

1 26605U 00071A 20236.70033532 .00000034 00000-0 00000+0 0 9999 2 26605 55.0356 178.8015 0117790 251.0348 292.6247 2.00562206144940
UTC large
Height (km)
Speed (km/s)
/
Latitude / Longitude
Inclination (degrees)
Orbital Period (minutes)
Azimuth
Elevation
Range (km)
Doppler Factor

Next 0 passes for location: London (51.5072 / 0.1276)

Sorry there are no passes over London.
GPS BIIR-6 (PRN 14)